Le nostre stazioni meteo in Italia

Pubblicità
Il mio iltempo24.it
Trapani/Birgi, Italia (16429): Temperatura & dewpoint: 15.04.2019 09:00:00 - 21.04.2019 09:00:00 (CEST)Trapani/Birgi, Italia (16429): velocità del vento: 15.04.2019 09:00:00 - 21.04.2019 09:00:00 (CEST)Trapani/Birgi, Italia (16429): direzione del vento: 15.04.2019 09:00:00 - 21.04.2019 09:00:00 (CEST)Trapani/Birgi, Italia (16429): reduced air pressure: 15.04.2019 09:00:00 - 21.04.2019 09:00:00 (CEST)Trapani/Birgi, Italia (16429): visibility: 15.04.2019 09:00:00 - 21.04.2019 09:00:00 (CEST)Trapani/Birgi, Italia (16429): ore di luce: 15.04.2019 09:00:00 - 21.04.2019 09:00:00 (CEST)
Data & Tempo tt [°C] td [°C] ff [km/h] ff [kn] dd ppp [hPa] vv [km] sd [min]
21.04.2019 09:00:00 - - - - - - - -
21.04.2019 08:00:00 16,2 10,7 15 8 N 1015,1 20 0
21.04.2019 07:00:00 16,0 9,4 11 6 E 1015,1 16 -
21.04.2019 06:00:00 15,0 9,6 11 6 E 1014,8 12 -
21.04.2019 05:00:00 16,0 8,3 18 10 SE 1015,8 12 -
21.04.2019 04:00:00 12,4 4,9 18 10 ESE 1016,8 12 -
21.04.2019 03:00:00 14,0 10,2 11 6 SE 1019,1 12 -
21.04.2019 02:00:00 14,8 12,8 15 8 SE 1018,7 12 -
21.04.2019 01:00:00 15,0 10,6 13 7 ESE 1019,1 12 -
21.04.2019 00:00:00 15,8 13,1 4 2 N 1019,2 12 -
20.04.2019 23:00:00 16,0 14,2 11 6 ESE 1018,5 12 -
20.04.2019 22:00:00 16,2 14,6 21 11 SE 1019,1 12 -
20.04.2019 21:00:00 16,4 13,5 26 14 SE 1019,1 12 -
20.04.2019 20:00:00 16,8 12,1 28 15 SE 1019,1 16 -
20.04.2019 19:00:00 18,0 11,3 35 19 SE 1019,0 16 0
20.04.2019 18:00:00 19,2 11,3 35 19 SE 1019,1 16 18
20.04.2019 17:00:00 21,8 13,4 28 15 SSE 1019,6 16 12
20.04.2019 16:00:00 23,0 11,4 24 13 SE 1020,1 12 12
20.04.2019 15:00:00 23,4 10,1 22 12 SE 1021,1 16 42
20.04.2019 14:00:00 23,2 8,1 26 14 SE 1021,7 16 48
20.04.2019 13:00:00 23,0 6,3 22 12 SSE 1022,3 16 60
20.04.2019 12:00:00 22,2 6,8 11 6 SSE 1023,1 10 30
20.04.2019 11:00:00 19,0 6,2 16 9 ESE 1023,2 16 0
20.04.2019 10:00:00 17,2 8,6 9 5 ESE 1023,7 16 0
20.04.2019 09:00:00 14,0 12,0 4 2 N 1024,1 16 0
20.04.2019 08:00:00 12,0 10,9 2 1 N 1023,6 12 0
20.04.2019 07:00:00 11,2 10,3 4 2 N 1023,2 20 -
20.04.2019 06:00:00 11,2 10,0 5 3 E 1023,4 20 -
20.04.2019 05:00:00 10,8 10,0 4 2 ESE 1023,9 20 -
20.04.2019 04:00:00 11,2 10,6 4 2 ESE 1024,1 20 -
20.04.2019 03:00:00 13,0 12,2 5 3 E 1024,3 20 -
20.04.2019 02:00:00 13,2 12,4 4 2 N 1024,8 20 -
20.04.2019 01:00:00 14,0 13,0 9 5 SE 1025,1 20 -
20.04.2019 00:00:00 14,0 12,7 15 8 SE 1025,4 20 -
19.04.2019 23:00:00 14,0 12,1 5 3 N 1025,6 20 -
19.04.2019 22:00:00 14,6 11,2 8 4 SSE 1025,2 20 -
19.04.2019 21:00:00 15,2 14,2 8 4 S 1025,0 20 -
19.04.2019 20:00:00 16,2 15,1 8 4 O 1024,8 20 -
19.04.2019 19:00:00 19,2 12,0 8 4 S 1024,5 20 30
19.04.2019 18:00:00 19,0 11,6 9 5 NO 1024,6 22 60
19.04.2019 17:00:00 18,8 15,5 18 10 ONO 1024,7 22 60
19.04.2019 16:00:00 21,2 11,5 11 6 ONO 1024,6 22 60
19.04.2019 15:00:00 22,6 6,8 22 12 SE 1024,9 10 60
19.04.2019 14:00:00 23,2 6,5 28 15 SSE 1024,9 22 60
19.04.2019 13:00:00 22,8 6,1 28 15 SSE 1025,1 22 60
19.04.2019 12:00:00 21,2 5,6 24 13 SE 1025,3 10 60
19.04.2019 11:00:00 21,0 5,8 16 9 ESE 1025,1 22 60
19.04.2019 10:00:00 19,0 7,8 16 9 SSE 1024,9 22 60
19.04.2019 09:00:00 16,2 10,1 4 2 NE 1024,2 20 36
19.04.2019 08:00:00 11,8 8,5 4 2 E 1023,4 20 0
19.04.2019 07:00:00 10,4 8,7 8 4 ENE 1022,9 20 0
19.04.2019 06:00:00 11,8 11,0 8 4 E 1022,8 15 -
19.04.2019 05:00:00 11,8 11,0 9 5 SO 1022,6 15 -
19.04.2019 04:00:00 12,0 10,3 5 3 ESE 1022,6 15 -
19.04.2019 03:00:00 12,0 10,3 5 3 ESE 1022,8 15 -
19.04.2019 02:00:00 12,0 10,4 9 5 ESE 1022,9 15 -
19.04.2019 01:00:00 12,2 10,6 9 5 ESE 1022,9 15 -
19.04.2019 00:00:00 12,4 10,5 5 3 E 1022,7 15 -
18.04.2019 23:00:00 13,2 11,3 5 3 E 1022,1 15 -
18.04.2019 22:00:00 15,0 12,9 5 3 E 1021,7 15 -
18.04.2019 21:00:00 15,2 14,4 2 1 N 1021,1 15 -
18.04.2019 20:00:00 16,4 15,6 5 3 NNE 1020,9 20 18
18.04.2019 19:00:00 19,4 11,4 16 9 ESE 1020,4 18 60
18.04.2019 18:00:00 20,8 12,5 16 9 SE 1021,1 20 60
18.04.2019 17:00:00 21,2 13,1 18 10 SSE 1021,1 20 60
18.04.2019 16:00:00 21,8 14,0 21 11 S 1021,1 20 60
18.04.2019 15:00:00 22,0 13,9 18 10 SSE 1021,1 20 60
18.04.2019 14:00:00 19,6 15,9 26 14 SO 1021,4 20 60
18.04.2019 13:00:00 18,6 16,2 21 11 O 1021,8 20 60
18.04.2019 12:00:00 17,6 15,8 16 9 O 1021,9 20 30
18.04.2019 11:00:00 19,2 14,0 11 6 ESE 1021,7 20 60
18.04.2019 10:00:00 17,2 14,1 11 6 ESE 1021,7 20 60
18.04.2019 09:00:00 14,2 11,9 9 5 ESE 1021,3 20 42
18.04.2019 08:00:00 11,6 9,5 9 5 ENE 1021,1 18 18
18.04.2019 07:00:00 10,4 8,3 8 4 SE 1020,8 16 -
18.04.2019 06:00:00 12,0 9,9 9 5 ESE 1020,7 12 -
18.04.2019 05:00:00 11,0 9,1 4 2 NE 1020,9 12 -
18.04.2019 04:00:00 10,6 9,0 4 2 ENE 1020,8 12 -
18.04.2019 03:00:00 10,4 8,7 5 3 ENE 1021,2 12 -
18.04.2019 02:00:00 11,2 9,5 4 2 E 1021,3 12 -
18.04.2019 01:00:00 11,4 9,7 2 1 E 1021,3 12 -
18.04.2019 00:00:00 11,2 9,8 5 3 NE 1021,2 12 -
17.04.2019 23:00:00 12,0 11,1 8 4 NNE 1021,2 12 -
17.04.2019 22:00:00 13,6 12,7 4 2 ENE 1021,2 12 -
17.04.2019 21:00:00 15,0 13,9 5 3 NNE 1020,5 12 -
17.04.2019 20:00:00 16,4 15,1 8 4 N 1020,0 16 24
17.04.2019 19:00:00 16,8 14,8 21 11 N 1019,8 20 60
17.04.2019 18:00:00 16,8 15,0 21 11 NNO 1020,1 20 60
17.04.2019 17:00:00 17,0 15,0 22 12 NNO 1020,2 20 60
17.04.2019 16:00:00 17,4 15,0 22 12 NNO 1020,1 20 60
17.04.2019 15:00:00 17,2 15,4 18 10 NO 1021,0 20 60
17.04.2019 14:00:00 17,2 15,4 18 10 NNO 1021,0 20 60
17.04.2019 13:00:00 17,0 15,2 18 10 NO 1021,2 20 60
17.04.2019 12:00:00 17,0 14,8 15 8 NO 1021,2 20 54
17.04.2019 11:00:00 16,8 13,9 11 6 NO 1021,1 20 30
17.04.2019 10:00:00 15,8 12,7 5 3 N 1021,1 25 60
17.04.2019 09:00:00 13,8 11,7 4 2 N 1021,0 20 60
17.04.2019 08:00:00 11,2 9,3 0 0 N 1020,8 18 0
17.04.2019 07:00:00 9,6 7,7 5 3 E 1020,4 16 -
17.04.2019 06:00:00 9,4 7,5 5 3 SE 1020,2 12 -
17.04.2019 05:00:00 11,0 9,1 5 3 ESE 1020,2 12 -
17.04.2019 04:00:00 11,2 9,5 11 6 ESE 1020,8 12 -
17.04.2019 03:00:00 10,2 8,5 4 2 E 1021,2 10 -
17.04.2019 02:00:00 10,2 8,6 5 3 E 1021,1 12 -
17.04.2019 01:00:00 10,4 9,3 5 3 E 1021,1 12 -
17.04.2019 00:00:00 11,2 10,3 8 4 E 1021,1 14 -
16.04.2019 23:00:00 11,6 10,7 5 3 E 1021,1 14 -
16.04.2019 22:00:00 12,2 11,1 5 3 ESE 1021,1 14 -
16.04.2019 21:00:00 14,2 12,6 8 4 E 1020,9 16 -
16.04.2019 20:00:00 15,0 11,8 9 5 ESE 1020,5 18 0
16.04.2019 19:00:00 15,4 12,4 9 5 SSE 1020,4 20 0
16.04.2019 18:00:00 15,0 13,7 16 9 S 1020,3 12 0
16.04.2019 17:00:00 17,6 11,4 18 10 S 1020,0 16 36
16.04.2019 16:00:00 19,0 13,0 24 13 SSO 1019,7 16 60
16.04.2019 15:00:00 19,0 12,3 21 11 SO 1020,4 20 60
16.04.2019 14:00:00 18,8 11,4 26 14 SSO 1021,0 20 60
16.04.2019 13:00:00 18,4 12,2 16 9 SSO 1021,1 20 48
16.04.2019 12:00:00 18,2 15,1 15 8 OSO 1021,1 16 12
16.04.2019 11:00:00 17,0 11,3 11 6 SSE 1021,1 16 18
16.04.2019 10:00:00 15,0 12,3 4 2 N 1020,5 20 36
16.04.2019 09:00:00 13,6 11,5 4 2 N 1020,6 20 18
16.04.2019 08:00:00 9,6 7,5 8 4 SE 1020,2 16 0
16.04.2019 07:00:00 8,2 6,5 5 3 ESE 1019,4 20 -
16.04.2019 06:00:00 12,8 11,2 4 2 ESE 1019,1 20 -
16.04.2019 05:00:00 9,0 7,4 5 3 E 1020,0 20 -
16.04.2019 04:00:00 9,0 7,4 8 4 E 1020,1 20 -
16.04.2019 03:00:00 9,6 8,2 5 3 SE 1020,0 20 -
16.04.2019 02:00:00 9,8 8,6 8 4 E 1019,9 20 -
16.04.2019 01:00:00 10,0 9,2 8 4 ESE 1019,9 20 -
16.04.2019 00:00:00 11,0 10,4 8 4 SE 1019,8 20 -
15.04.2019 23:00:00 12,2 11,4 5 3 N 1019,3 20 -
15.04.2019 22:00:00 13,2 11,9 11 6 N 1019,1 20 -
15.04.2019 21:00:00 14,0 12,4 11 6 N 1018,3 20 -
15.04.2019 20:00:00 14,6 12,6 11 6 N 1017,6 20 -
15.04.2019 19:00:00 15,2 12,2 22 12 N 1017,1 10 60
15.04.2019 18:00:00 15,8 12,4 22 12 N 1016,6 22 60
15.04.2019 17:00:00 16,0 12,2 26 14 N 1016,0 22 60
15.04.2019 16:00:00 16,2 10,3 31 17 N 1015,2 22 60
15.04.2019 15:00:00 16,4 11,8 29 16 N 1015,1 22 60
15.04.2019 14:00:00 16,2 10,7 29 16 N 1014,9 22 60
15.04.2019 13:00:00 16,0 11,6 31 17 N 1014,1 22 60
15.04.2019 12:00:00 16,2 11,6 34 18 N 1013,1 22 48
15.04.2019 11:00:00 15,2 10,8 28 15 NO 1012,2 20 42
15.04.2019 10:00:00 15,2 11,8 41 22 NO 1012,1 18 18
15.04.2019 09:00:00 15,0 11,4 39 21 NO 1011,8 18 12

tt = Temperatura
td = dewpoint
ff = velocità del vento
dd = direzione del vento
ppp = reduced air pressure
vv = visibility
sd = ore di luce

Stazioni seguenti

WeatherPro
AMSI
MeteoEarth